Location: Passau
(48.5830°N, 13.4830°E)
Time: 21:35:49
(UTC+02:00)

Vanguard 3 - Pass Details

Date: 24 May 2024
Orbit: 509 x 3231 km, 33.3° (Epoch: 16 June)

Event Time Altitude Azimuth Distance (km) Brightness Sun altitude
Rises 20:53:07 0° 244° (WSW) 4,259 11.3 -1.0°
Reaches altitude 10° 20:55:46 10° 236° (SW) 3,597 10.8 -1.3°
Maximum altitude 21:04:38 39° 172° (S) 2,851 9.6 -2.5°
Drops below altitude 10° 21:18:41 10° 112° (ESE) 5,667 10.8 -4.4°
Sets 21:24:09 0° 106° (ESE) 6,956 11.3 -5.1°
